GW0699 Weather Reports


Display with metric or nautical units.
time (UTC)temp
F
wind
direction
speed
MPH
gust
MPH
rain 1hr
in
rain 24hr
in
rain mn
in
humidity
%
barometer
mb
20260505074601 52 298 3.0 0.0 0.00 0.00 0.00 89 1011.7
20260505073030 52 360 4.0 0.0 0.00 0.00 0.00 89 1011.7
20260505071550 52 5 5.0 0.0 0.00 0.00 0.00 89 1011.5
20260505070017 52 321 5.0 0.0 0.00 0.00 0.00 89 1011.3
20260505064537 52 22 5.0 0.0 0.00 0.00 0.00 89 1011.3
20260505063112 52 338 6.0 0.0 0.00 0.00 0.00 89 1011.2
20260505061601 52 308 5.0 0.0 0.00 0.00 0.00 88 1011.3
20260505060036 53 336 4.0 0.0 0.00 0.00 0.00 88 1010.9
20260505054513 53 321 5.0 0.0 0.00 0.00 0.00 88 1010.9
20260505053048 53 360 5.0 0.0 0.00 0.00 0.00 87 1010.8
20260505051600 53 348 6.0 0.0 0.00 0.00 0.00 87 1010.9
20260505041544 54 325 3.0 0.0 0.00 0.00 0.00 85 1010.6
20260505040059 54 334 4.0 0.0 0.00 0.00 0.00 84 1010.5
20260505034526 55 348 3.0 0.0 0.00 0.00 0.00 83 1010.2
20260505033043 56 336 3.0 0.0 0.00 0.00 0.00 82 1009.9
20260505031607 56 350 4.0 0.0 0.00 0.00 0.00 80 1009.8
20260505030020 58 320 6.0 0.0 0.00 0.00 0.00 78 1009.7
20260505024539 59 344 6.0 0.0 0.00 0.00 0.00 76 1009.4
20260505023021 60 310 5.0 0.0 0.00 0.00 0.00 74 1009.3
20260505021559 61 342 7.0 0.0 0.00 0.00 0.00 73 1009.1
20260505020028 62 341 9.0 0.0 0.00 0.00 0.00 71 1009.0
20260505014609 64 323 7.0 0.0 0.00 0.00 0.00 69 1008.9
20260505013031 64 334 8.0 0.0 0.00 0.00 0.00 69 1008.8
20260505011551 66 360 6.0 0.0 0.00 0.00 0.00 69 1008.8
20260505010016 67 320 7.0 0.0 0.00 0.00 0.00 68 1009.0
20260505004542 68 342 7.0 0.0 0.00 0.00 0.00 65 1008.9
20260505003057 69 336 7.0 0.0 0.00 0.00 0.00 63 1008.9
20260505001504 70 317 7.0 0.0 0.00 0.00 0.00 62 1008.9
20260505000032 70 313 6.0 0.0 0.00 0.00 0.00 60 1008.7
20260504234533 70 355 7.0 0.0 0.00 0.00 0.00 61 1008.6
20260504233034 71 301 7.0 0.0 0.00 0.00 0.00 60 1008.6
20260504231545 71 15 7.0 0.0 0.00 0.00 0.00 59 1008.5
20260504230007 71 355 6.0 0.0 0.00 0.00 0.00 55 1008.7
20260504224547 72 319 5.0 0.0 0.00 0.00 0.00 57 1008.9
20260504223022 71 280 5.0 0.0 0.00 0.00 0.00 59 1009.0
20260504221554 72 5 4.0 0.0 0.00 0.00 0.00 60 1009.2
20260504220047 71 323 3.0 0.0 0.00 0.00 0.00 60 1009.4
20260504214547 72 192 3.0 0.0 0.00 0.00 0.00 61 1009.4
20260504213004 71 266 2.0 0.0 0.00 0.00 0.00 64 1009.4
20260504211527 71 271 1.0 0.0 0.00 0.00 0.00 65 1009.6
20260504210042 71 331 2.0 0.0 0.00 0.00 0.00 67 1009.8
20260504204606 70 207 2.0 0.0 0.00 0.00 0.00 65 1009.9
20260504203057 69 217 2.0 0.0 0.00 0.00 0.00 66 1010.2
20260504201512 69 208 2.0 0.0 0.00 0.00 0.00 67 1010.3
20260504200024 68 217 3.0 0.0 0.00 0.00 0.00 64 1010.4
20260504194555 67 240 3.0 0.0 0.00 0.00 0.00 69 1010.4
20260504193100 67 202 4.0 0.0 0.00 0.00 0.00 69 1010.6
20260504191513 67 225 3.0 0.0 0.00 0.00 0.00 69 1010.7
20260504190035 66 186 2.0 0.0 0.00 0.00 0.00 68 1010.9
20260504184534 66 227 2.0 0.0 0.00 0.00 0.00 70 1010.9
20260504183057 64 355 2.0 0.0 0.00 0.00 0.00 70 1010.9
20260504181537 64 223 2.0 0.0 0.00 0.00 0.00 71 1011.0
20260504180042 63 175 2.0 0.0 0.00 0.00 0.00 73 1011.0
20260504174552 62 232 2.0 0.0 0.00 0.00 0.00 73 1011.0
20260504173034 62 342 2.0 0.0 0.00 0.00 0.00 74 1011.0
20260504171534 61 336 2.0 0.0 0.00 0.00 0.00 75 1011.0
20260504081505 66 15 4.0 0.0 0.00 0.00 0.00 58 1006.4